Tracking 17265 objects as of 3-September-2015
HD Live streaming from Space Station

Track Soyuz TMA-18M
and Space Station

CZ-4B DEB

Track CZ-4B DEB now!
10-day predictions
CZ-4B DEB is classified as:


NORAD ID: 36290
Int'l Code: 2008-053L
Perigee: 568.2 km
Apogee: 596.5 km
Inclination: 97.6 °
Period: 96.2 minutes
Semi major axis: 6953 km
RCS: 0.0218 m2 (small)
Launch date: October 25, 2008
Source: People's Republic of China (PRC)

Note: This is SATELLITE DEBRIS
Your satellite tracking list
Your tracking list is empty





NASA's NSSDC Master Catalog

Two Line Element Set (TLE):
1 36290U 08053L   15245.77511365 -.00000116 +00000-0 -50156-5 0  9990
2 36290 097.5504 243.5140 0020348 210.0266 149.9791 14.97316963352307

Source of the keplerian elements: AFSPC

N2YO: 465